Time,TemperatureF,DewpointF,PressureIn,WindDirection,WindDirectionDegrees,WindSpeedMPH,WindSpeedGustMPH,Humidity,HourlyPrecipIn,Conditions,Clouds,dailyrainin,SoftwareType,DateUTC
2013-02-04 00:09:00,37.2,27.0,30.09,SSE,155,1.0,2.0,66,0.00,,,0.00,weatherlink.com 1.10,2013-02-04 08:09:00,
2013-02-04 00:24:00,36.7,27.0,30.09,SSE,153,1.0,1.0,67,0.00,,,0.00,weatherlink.com 1.10,2013-02-04 08:24:00,
2013-02-04 00:39:00,36.5,27.0,30.09,SSE,160,0.0,2.0,68,0.00,,,0.00,weatherlink.com 1.10,2013-02-04 08:39:00,
2013-02-04 00:55:00,36.1,27.0,30.09,SSE,154,0.0,1.0,69,0.00,,,0.00,weatherlink.com 1.10,2013-02-04 08:55:00,
2013-02-04 01:10:00,36.3,26.0,30.09,NE,56,2.0,2.0,67,0.00,,,0.00,weatherlink.com 1.10,2013-02-04 09:10:00,
2013-02-04 01:25:00,36.0,27.0,30.09,ESE,118,0.0,3.0,69,0.00,,,0.00,weatherlink.com 1.10,2013-02-04 09:25:00,
2013-02-04 01:40:00,36.4,27.0,30.09,East,97,0.0,3.0,68,0.00,,,0.00,weatherlink.com 1.10,2013-02-04 09:40:00,
2013-02-04 01:55:00,36.6,26.0,30.09,ENE,66,1.0,3.0,66,0.00,,,0.00,weatherlink.com 1.10,2013-02-04 09:55:00,
2013-02-04 02:10:00,36.5,26.0,30.09,East,95,2.0,5.0,67,0.00,,,0.00,weatherlink.com 1.10,2013-02-04 10:10:00,
2013-02-04 02:25:00,36.3,27.0,30.09,SE,143,0.0,2.0,68,0.00,,,0.00,weatherlink.com 1.10,2013-02-04 10:25:00,
2013-02-04 02:40:00,35.9,26.0,30.09,SE,146,0.0,1.0,68,0.00,,,0.00,weatherlink.com 1.10,2013-02-04 10:40:00,
2013-02-04 02:55:00,37.2,27.0,30.08,SE,129,0.0,3.0,66,0.00,,,0.00,weatherlink.com 1.10,2013-02-04 10:55:00,
2013-02-04 03:10:00,36.9,27.0,30.07,SSE,148,0.0,2.0,67,0.00,,,0.00,weatherlink.com 1.10,2013-02-04 11:10:00,
2013-02-04 03:25:00,35.9,27.0,30.07,South,188,0.0,3.0,69,0.00,,,0.00,weatherlink.com 1.10,2013-02-04 11:25:00,
2013-02-04 03:40:00,35.6,26.0,30.07,SE,135,0.0,2.0,69,0.00,,,0.00,weatherlink.com 1.10,2013-02-04 11:40:00,
2013-02-04 03:55:00,36.8,27.0,30.06,WSW,240,4.0,4.0,67,0.00,,,0.00,weatherlink.com 1.10,2013-02-04 11:55:00,
2013-02-04 04:10:00,37.5,26.0,30.07,SSE,148,0.0,3.0,63,0.00,,,0.00,weatherlink.com 1.10,2013-02-04 12:10:00,
2013-02-04 04:25:00,37.1,27.0,30.07,SSE,148,0.0,1.0,66,0.00,,,0.00,weatherlink.com 1.10,2013-02-04 12:25:00,
2013-02-04 04:40:00,36.7,26.0,30.06,SSE,148,0.0,1.0,66,0.00,,,0.00,weatherlink.com 1.10,2013-02-04 12:40:00,
2013-02-04 04:55:00,36.1,26.0,30.06,SSE,150,0.0,1.0,68,0.00,,,0.00,weatherlink.com 1.10,2013-02-04 12:55:00,
2013-02-04 05:10:00,35.6,27.0,30.05,SSE,149,0.0,1.0,70,0.00,,,0.00,weatherlink.com 1.10,2013-02-04 13:10:00,
2013-02-04 05:25:00,35.3,27.0,30.05,SSE,158,0.0,1.0,72,0.00,,,0.00,weatherlink.com 1.10,2013-02-04 13:25:00,
2013-02-04 05:40:00,35.4,27.0,30.05,SSE,165,0.0,2.0,70,0.00,,,0.00,weatherlink.com 1.10,2013-02-04 13:40:00,
2013-02-04 05:55:00,35.3,26.0,30.06,SE,146,1.0,1.0,70,0.00,,,0.00,weatherlink.com 1.10,2013-02-04 13:55:00,
2013-02-04 06:14:00,34.8,28.0,30.05,SSE,147,0.0,1.0,75,0.00,,,0.00,weatherlink.com 1.10,2013-02-04 14:14:00,
2013-02-04 06:25:00,34.4,26.0,30.05,SSE,165,2.0,3.0,72,0.00,,,0.00,weatherlink.com 1.10,2013-02-04 14:25:00,
2013-02-04 06:40:00,34.4,27.0,30.05,SSE,148,0.0,1.0,75,0.00,,,0.00,weatherlink.com 1.10,2013-02-04 14:40:00,
2013-02-04 06:55:00,34.0,27.0,30.05,ESE,116,1.0,2.0,76,0.00,,,0.00,weatherlink.com 1.10,2013-02-04 14:55:00,
2013-02-04 07:10:00,34.5,27.0,30.05,SSE,154,0.0,1.0,73,0.00,,,0.00,weatherlink.com 1.10,2013-02-04 15:10:00,
2013-02-04 07:25:00,34.1,27.0,30.05,SSE,154,0.0,1.0,75,0.00,,,0.00,weatherlink.com 1.10,2013-02-04 15:25:00,
2013-02-04 07:40:00,34.0,26.0,30.05,ESE,118,0.0,1.0,72,0.00,,,0.00,weatherlink.com 1.10,2013-02-04 15:40:00,
2013-02-04 07:55:00,34.3,25.0,30.05,ESE,110,1.0,3.0,70,0.00,,,0.00,weatherlink.com 1.10,2013-02-04 15:55:00,
2013-02-04 08:10:00,35.1,26.0,30.05,ESE,104,2.0,3.0,69,0.00,,,0.00,weatherlink.com 1.10,2013-02-04 16:10:00,
2013-02-04 08:25:00,35.9,26.0,30.06,SE,141,1.0,3.0,67,0.00,,,0.00,weatherlink.com 1.10,2013-02-04 16:25:00,
2013-02-04 08:40:00,36.8,26.0,30.07,ENE,75,2.0,4.0,65,0.00,,,0.00,weatherlink.com 1.10,2013-02-04 16:40:00,
2013-02-04 08:55:00,37.3,26.0,30.06,ESE,121,0.0,4.0,65,0.00,,,0.00,weatherlink.com 1.10,2013-02-04 16:55:00,
2013-02-04 09:10:00,38.3,27.0,30.06,SSW,198,2.0,3.0,63,0.00,,,0.00,weatherlink.com 1.10,2013-02-04 17:10:00,
2013-02-04 09:25:00,39.6,26.0,30.06,South,189,2.0,4.0,58,0.00,,,0.00,weatherlink.com 1.10,2013-02-04 17:25:00,
2013-02-04 09:40:00,39.9,26.0,30.06,NNE,13,4.0,4.0,58,0.00,,,0.00,weatherlink.com 1.10,2013-02-04 17:40:00,
2013-02-04 09:56:00,40.2,26.0,30.06,NE,35,2.0,6.0,57,0.00,,,0.00,weatherlink.com 1.10,2013-02-04 17:56:00,
2013-02-04 10:10:00,40.7,26.0,30.06,NNE,16,3.0,6.0,56,0.00,,,0.00,weatherlink.com 1.10,2013-02-04 18:10:00,
2013-02-04 10:25:00,41.5,26.0,30.06,NE,41,2.0,5.0,55,0.00,,,0.00,weatherlink.com 1.10,2013-02-04 18:25:00,
2013-02-04 10:40:00,42.4,27.0,30.05,NE,35,3.0,5.0,54,0.00,,,0.00,weatherlink.com 1.10,2013-02-04 18:40:00,
2013-02-04 10:55:00,43.2,26.0,30.05,East,92,1.0,5.0,50,0.00,,,0.00,weatherlink.com 1.10,2013-02-04 18:55:00,
2013-02-04 11:11:00,43.8,25.0,30.04,ENE,63,1.0,5.0,48,0.00,,,0.00,weatherlink.com 1.10,2013-02-04 19:11:00,
2013-02-04 11:26:00,44.8,26.0,30.04,ENE,64,2.0,5.0,48,0.00,,,0.00,weatherlink.com 1.10,2013-02-04 19:26:00,
2013-02-04 11:41:00,46.0,25.0,30.03,SSE,159,1.0,4.0,44,0.00,,,0.00,weatherlink.com 1.10,2013-02-04 19:41:00,
2013-02-04 11:57:00,46.7,24.0,30.02,ENE,77,2.0,5.0,41,0.00,,,0.00,weatherlink.com 1.10,2013-02-04 19:57:00,
2013-02-04 12:11:00,47.3,22.0,30.01,North,3,4.0,5.0,37,0.00,,,0.00,weatherlink.com 1.10,2013-02-04 20:11:00,
2013-02-04 12:26:00,48.2,21.0,30.00,ENE,71,1.0,4.0,34,0.00,,,0.00,weatherlink.com 1.10,2013-02-04 20:26:00,
2013-02-04 12:41:00,49.2,22.0,29.99,SE,126,1.0,4.0,34,0.00,,,0.00,weatherlink.com 1.10,2013-02-04 20:41:00,
2013-02-04 12:56:00,49.4,20.0,29.98,SSW,193,3.0,3.0,32,0.00,,,0.00,weatherlink.com 1.10,2013-02-04 20:56:00,
2013-02-04 13:11:00,49.5,20.0,29.98,East,86,1.0,4.0,31,0.00,,,0.00,weatherlink.com 1.10,2013-02-04 21:11:00,
2013-02-04 13:26:00,49.3,22.0,29.97,NNE,32,2.0,4.0,34,0.00,,,0.00,weatherlink.com 1.10,2013-02-04 21:26:00,
2013-02-04 13:41:00,49.5,23.0,29.97,NNE,17,3.0,4.0,35,0.00,,,0.00,weatherlink.com 1.10,2013-02-04 21:41:00,
2013-02-04 13:56:00,49.7,24.0,29.97,North,4,4.0,5.0,36,0.00,,,0.00,weatherlink.com 1.10,2013-02-04 21:56:00,
2013-02-04 14:11:00,50.6,24.0,29.96,ENE,77,1.0,4.0,35,0.00,,,0.00,weatherlink.com 1.10,2013-02-04 22:11:00,
2013-02-04 14:26:00,51.3,24.0,29.96,East,80,2.0,3.0,34,0.00,,,0.00,weatherlink.com 1.10,2013-02-04 22:26:00,
2013-02-04 14:41:00,51.8,23.0,29.95,NNE,30,3.0,4.0,32,0.00,,,0.00,weatherlink.com 1.10,2013-02-04 22:41:00,
2013-02-04 14:57:00,51.5,22.0,29.95,NE,53,2.0,3.0,32,0.00,,,0.00,weatherlink.com 1.10,2013-02-04 22:57:00,
2013-02-04 15:11:00,51.4,23.0,29.95,SSE,160,1.0,4.0,33,0.00,,,0.00,weatherlink.com 1.10,2013-02-04 23:11:00,
2013-02-04 15:26:00,51.3,23.0,29.95,ESE,103,2.0,3.0,33,0.00,,,0.00,weatherlink.com 1.10,2013-02-04 23:26:00,
2013-02-04 15:41:00,51.0,23.0,29.95,East,80,0.0,2.0,34,0.00,,,0.00,weatherlink.com 1.10,2013-02-04 23:41:00,
2013-02-04 15:56:00,50.6,24.0,29.94,SE,128,1.0,2.0,35,0.00,,,0.00,weatherlink.com 1.10,2013-02-04 23:56:00,
2013-02-04 16:12:00,49.4,25.0,29.94,SSE,150,0.0,1.0,38,0.00,,,0.00,weatherlink.com 1.10,2013-02-05 00:12:00,
2013-02-04 16:26:00,48.8,26.0,29.93,SSE,155,0.0,1.0,42,0.00,,,0.00,weatherlink.com 1.10,2013-02-05 00:26:00,
2013-02-04 16:42:00,46.9,28.0,29.93,SSE,155,0.0,0.0,48,0.00,,,0.00,weatherlink.com 1.10,2013-02-05 00:42:00,
2013-02-04 16:56:00,45.1,28.0,29.93,SSE,155,0.0,0.0,52,0.00,,,0.00,weatherlink.com 1.10,2013-02-05 00:56:00,
2013-02-04 17:11:00,43.6,29.0,29.93,SSE,155,0.0,0.0,57,0.00,,,0.00,weatherlink.com 1.10,2013-02-05 01:11:00,
2013-02-04 17:26:00,41.5,30.0,29.93,SSE,155,0.0,0.0,63,0.00,,,0.00,weatherlink.com 1.10,2013-02-05 01:26:00,
2013-02-04 17:41:00,39.9,30.0,29.93,SSE,155,0.0,0.0,67,0.00,,,0.00,weatherlink.com 1.10,2013-02-05 01:41:00,
2013-02-04 17:56:00,39.4,30.0,29.93,SSE,155,0.0,0.0,68,0.00,,,0.00,weatherlink.com 1.10,2013-02-05 01:56:00,
2013-02-04 18:11:00,38.9,30.0,29.94,SSE,155,0.0,0.0,70,0.00,,,0.00,weatherlink.com 1.10,2013-02-05 02:11:00,
2013-02-04 18:27:00,37.9,29.0,29.94,SSE,155,0.0,0.0,70,0.00,,,0.00,weatherlink.com 1.10,2013-02-05 02:27:00,
2013-02-04 18:41:00,37.1,30.0,29.94,SSE,155,0.0,0.0,74,0.00,,,0.00,weatherlink.com 1.10,2013-02-05 02:41:00,
2013-02-04 18:56:00,36.4,30.0,29.94,SSE,155,0.0,0.0,76,0.00,,,0.00,weatherlink.com 1.10,2013-02-05 02:56:00,
2013-02-04 19:12:00,35.9,29.0,29.94,SSE,155,0.0,0.0,76,0.00,,,0.00,weatherlink.com 1.10,2013-02-05 03:12:00,
2013-02-04 19:27:00,35.3,29.0,29.93,SSE,155,0.0,0.0,77,0.00,,,0.00,weatherlink.com 1.10,2013-02-05 03:27:00,
2013-02-04 19:42:00,34.5,28.0,29.93,SSE,155,0.0,0.0,78,0.00,,,0.00,weatherlink.com 1.10,2013-02-05 03:42:00,
2013-02-04 19:57:00,33.8,28.0,29.92,SSE,155,0.0,0.0,79,0.00,,,0.00,weatherlink.com 1.10,2013-02-05 03:57:00,
2013-02-04 20:12:00,32.9,27.0,29.92,SSE,155,0.0,0.0,78,0.00,,,0.00,weatherlink.com 1.10,2013-02-05 04:12:00,
2013-02-04 20:27:00,32.5,27.0,29.92,SSE,155,0.0,0.0,79,0.00,,,0.00,weatherlink.com 1.10,2013-02-05 04:27:00,
2013-02-04 20:42:00,32.0,27.0,29.91,SSE,155,0.0,0.0,81,0.00,,,0.00,weatherlink.com 1.10,2013-02-05 04:42:00,
2013-02-04 20:57:00,31.7,27.0,29.91,SSE,155,0.0,0.0,83,0.00,,,0.00,weatherlink.com 1.10,2013-02-05 04:57:00,
2013-02-04 21:12:00,31.4,27.0,29.91,SSE,155,0.0,0.0,83,0.00,,,0.00,weatherlink.com 1.10,2013-02-05 05:12:00,
2013-02-04 21:27:00,31.0,26.0,29.90,SSE,155,0.0,0.0,83,0.00,,,0.00,weatherlink.com 1.10,2013-02-05 05:27:00,
2013-02-04 21:42:00,30.6,26.0,29.89,SSE,155,0.0,0.0,84,0.00,,,0.00,weatherlink.com 1.10,2013-02-05 05:42:00,
2013-02-04 21:57:00,30.4,26.0,29.89,SSE,155,0.0,0.0,84,0.00,,,0.00,weatherlink.com 1.10,2013-02-05 05:57:00,
2013-02-04 22:12:00,30.1,26.0,29.89,SSE,155,0.0,0.0,84,0.00,,,0.00,weatherlink.com 1.10,2013-02-05 06:12:00,
2013-02-04 22:27:00,29.8,26.0,29.88,SSE,155,0.0,0.0,84,0.00,,,0.00,weatherlink.com 1.10,2013-02-05 06:27:00,
2013-02-04 22:57:00,30.8,25.0,29.87,SSE,152,0.0,2.0,80,0.00,,,0.00,weatherlink.com 1.10,2013-02-05 06:57:00,
2013-02-04 23:12:00,36.5,23.0,29.87,SSW,197,1.0,4.0,59,0.00,,,0.00,weatherlink.com 1.10,2013-02-05 07:12:00,
2013-02-04 23:27:00,38.9,22.0,29.86,East,84,1.0,5.0,50,0.00,,,0.00,weatherlink.com 1.10,2013-02-05 07:27:00,
2013-02-04 23:42:00,39.8,21.0,29.86,South,169,0.0,6.0,48,0.00,,,0.00,weatherlink.com 1.10,2013-02-05 07:42:00,
2013-02-04 23:57:00,40.8,22.0,29.86,SSE,148,0.0,5.0,47,0.00,,,0.00,weatherlink.com 1.10,2013-02-05 07:57:00,